Theta_e
342 337 336 334 332 332 331 332 336 342 345 346 345 343 340 337 336 336 335 333 332 331 330 328 326 325 327 329 329 329 329 328 328 330 331 330 330 329 330 331 331 331 332 333 334 335 334 329 327 327 326 325 324 324 325 326 327 328 329 329 329 329 330 333 336 336 334 335 336 335 336 336 335 333 330 329 330 330 329 329 328 329 328 328 329
339 336 335 332 332 332 331 332 334 338 343 346 345 344 341 337 336 336 335 333 332 331 329 328 326 325 327 330 330 330 330 330 330 330 331 332 332 331 332 332 332 331 331 333 335 337 335 329 327 327 326 325 325 325 326 327 328 328 328 327 327 327 329 333 336 336 335 336 337 336 336 335 334 333 331 329 329 329 328 328 328 327 327 328 327
337 335 333 331 331 331 331 331 332 336 341 345 345 343 341 338 336 336 335 333 332 331 329 327 327 326 327 330 330 330 331 331 331 331 332 333 333 334 335 336 334 331 331 332 334 337 336 331 329 327 325 325 326 325 327 327 327 327 327 327 327 327 329 331 333 333 333 335 336 336 335 334 333 332 331 330 329 329 329 328 327 325 326 327 326
337 334 332 331 330 330 330 330 332 334 338 341 342 343 342 339 337 336 336 334 333 331 330 328 327 327 328 330 330 331 331 332 332 333 334 335 336 336 338 339 337 333 332 332 332 335 337 335 333 327 324 326 326 325 327 327 327 328 328 328 327 328 328 330 331 331 332 334 335 335 334 333 333 332 332 331 330 329 329 328 327 326 325 326 326
337 333 332 331 330 329 329 330 331 333 335 338 341 342 343 341 339 338 337 336 334 332 330 328 327 328 329 330 330 331 332 332 332 332 334 337 339 338 339 338 337 333 331 331 330 334 336 336 334 327 323 328 329 326 326 327 328 329 329 328 328 328 326 327 329 330 331 331 332 332 332 332 331 331 332 332 330 329 329 328 327 326 325 326 327
336 334 333 332 331 329 328 329 331 333 334 337 341 342 343 342 340 339 338 337 335 333 331 329 328 328 329 330 331 331 332 332 332 332 333 336 337 338 339 336 335 332 329 330 330 334 336 336 334 324 321 328 330 326 326 328 329 329 330 330 330 329 327 326 325 326 326 327 329 329 330 331 331 331 332 331 331 330 328 327 327 326 325 326 326
336 335 334 333 331 328 327 328 331 333 333 336 341 342 343 343 342 341 339 338 336 333 331 330 328 329 329 330 331 331 332 332 332 333 332 335 338 338 338 336 336 333 330 330 332 336 337 337 334 323 320 324 327 325 326 329 329 330 331 331 332 332 331 329 327 325 323 325 330 331 331 332 332 332 331 331 331 331 329 327 327 327 326 326 327
337 336 334 333 331 329 327 328 330 332 333 336 340 343 344 343 342 342 340 339 338 334 332 331 329 330 330 330 331 331 332 332 333 333 332 335 340 340 339 337 336 335 333 331 333 338 338 339 334 322 321 325 326 326 328 329 329 331 332 332 333 334 332 330 329 327 325 325 329 331 332 332 332 332 332 332 331 331 330 328 326 325 326 326 326
337 335 333 333 331 328 327 329 331 332 334 336 338 342 343 343 342 342 341 340 339 334 332 332 331 332 332 332 332 332 333 333 333 333 332 334 339 341 340 338 338 337 334 333 335 338 339 339 334 323 322 326 328 328 329 329 329 331 332 333 334 334 333 331 330 328 326 324 326 329 331 333 333 333 332 332 331 331 329 326 324 324 326 326 325
337 334 334 332 330 328 329 331 333 334 336 337 338 340 342 343 343 344 342 341 340 335 333 334 335 333 333 333 332 333 334 333 333 334 333 335 338 340 341 340 339 338 334 333 334 337 338 339 334 325 322 324 328 329 328 329 329 330 330 331 332 332 332 332 330 328 325 322 323 325 329 331 332 333 332 331 330 329 327 325 324 325 326 326 325
337 335 333 331 329 328 330 333 336 337 338 338 339 340 342 342 343 344 344 343 341 337 335 336 337 334 333 333 332 334 336 335 334 334 335 337 338 339 340 340 339 337 333 332 333 334 336 337 333 327 325 322 324 327 328 329 329 329 329 330 331 331 332 332 330 329 327 325 325 324 326 328 330 333 331 330 328 326 325 325 325 326 325 325 325
337 335 332 330 329 329 332 335 337 339 339 340 341 342 342 342 343 344 344 343 342 339 338 338 337 335 335 335 333 335 336 335 335 335 336 338 339 339 339 339 337 335 333 332 330 332 334 336 334 328 327 323 320 322 324 327 327 327 328 330 330 330 333 332 330 330 329 328 328 327 325 324 329 332 331 331 328 324 321 324 326 326 326 325 325
339 335 333 331 330 331 333 334 336 338 341 341 342 342 342 343 344 344 344 344 343 340 340 339 337 336 337 335 334 335 336 335 336 336 336 338 338 338 338 337 336 334 333 331 330 331 333 335 334 330 328 327 323 320 320 322 322 323 325 327 329 331 333 332 330 331 330 330 330 328 324 324 329 332 332 331 328 325 322 325 328 326 325 324 323
340 336 333 334 335 334 332 333 334 336 339 339 339 340 341 343 344 344 344 344 343 341 340 339 337 336 336 336 335 336 336 335 336 336 336 337 337 337 337 337 335 335 333 331 329 331 333 334 334 331 329 327 326 323 320 320 320 320 321 324 328 332 333 332 331 331 330 331 331 327 323 325 329 331 332 331 329 327 327 328 327 326 325 323 322
341 337 335 337 339 336 333 332 332 332 334 335 335 337 339 341 343 343 343 344 343 341 340 339 337 335 335 335 335 335 335 335 336 336 336 337 337 337 337 337 335 334 333 330 329 330 332 334 334 332 331 328 326 324 319 318 318 319 322 326 329 330 331 332 331 331 331 331 330 326 323 324 327 330 332 331 329 328 328 327 326 325 324 321 321
341 338 336 336 337 336 333 330 329 329 329 332 335 336 338 341 342 341 342 343 342 340 339 338 336 333 333 334 334 334 334 335 336 336 335 336 336 336 336 336 334 333 332 330 329 329 330 332 333 333 332 329 327 325 321 319 318 322 326 329 329 327 329 332 332 331 331 330 329 326 323 323 325 329 332 331 329 328 327 326 326 325 322 319 317
341 338 336 335 335 333 331 328 328 328 327 330 333 335 337 341 342 340 342 342 341 339 338 337 335 331 332 332 333 333 334 334 335 335 334 334 333 333 334 333 333 333 332 332 330 329 329 330 331 333 333 331 328 326 323 322 323 327 329 328 326 326 328 332 333 332 331 330 329 325 321 325 326 328 331 330 329 328 326 326 326 324 322 319 316
341 339 337 336 335 333 330 329 329 330 328 329 331 333 335 339 341 340 341 341 339 338 338 336 333 331 331 331 331 333 334 334 334 334 332 330 330 330 330 330 331 331 332 333 332 330 329 328 329 332 333 332 329 326 324 323 325 327 327 327 325 327 329 332 334 332 331 329 326 323 322 325 327 328 330 329 328 328 327 327 325 324 322 320 317
340 339 338 337 336 334 331 330 331 332 330 328 330 331 333 337 340 339 340 340 339 337 336 335 333 332 332 330 330 332 334 335 334 333 331 329 328 327 327 327 329 331 330 332 332 330 327 325 328 331 332 331 328 326 325 323 323 325 326 326 325 328 331 331 333 332 331 328 326 326 324 325 326 328 329 328 328 327 327 326 324 323 322 321 319
339 339 339 339 338 335 332 332 333 333 331 329 330 329 330 333 337 338 338 338 338 337 336 335 335 334 332 332 332 332 334 335 334 332 332 330 327 327 326 326 329 331 329 331 331 328 326 323 326 330 329 327 326 325 324 323 322 322 325 325 325 329 331 331 331 331 330 328 328 328 326 324 324 327 329 328 327 327 326 326 325 324 321 318 315
338 337 337 338 337 335 332 332 333 333 332 331 331 330 328 328 331 334 336 337 337 337 337 337 338 337 334 334 334 334 334 333 333 332 333 333 329 327 327 326 329 331 329 330 329 327 325 323 326 328 326 325 325 324 323 323 322 321 325 325 326 329 330 331 332 331 330 329 329 327 326 325 324 325 327 327 327 326 324 325 325 324 320 314 307
337 337 336 335 334 334 333 334 335 335 333 333 333 331 329 327 326 329 333 333 335 336 337 338 338 338 337 337 336 335 334 332 334 334 333 335 333 330 328 326 329 330 329 328 327 326 325 324 326 326 324 325 325 326 324 322 321 320 325 326 327 330 329 331 331 331 330 329 327 326 326 325 324 324 324 326 326 325 324 324 326 324 321 314 304
338 338 337 336 335 335 336 337 337 336 335 335 334 333 331 329 326 326 329 329 332 334 335 337 337 337 337 337 337 335 333 331 334 335 334 336 336 333 329 327 327 327 326 327 326 325 324 324 325 324 324 324 323 325 324 322 321 321 325 325 327 330 329 330 331 330 329 327 326 326 325 324 324 323 323 323 322 324 324 324 326 324 322 318 309
338 338 337 337 337 337 338 338 337 337 337 337 336 335 331 330 328 326 327 327 330 330 330 335 337 336 336 337 337 333 333 334 333 334 335 335 336 334 331 328 326 324 323 323 324 325 324 324 324 323 323 323 321 320 319 320 320 321 325 324 326 330 329 330 330 329 328 326 327 326 325 323 323 323 323 322 318 323 325 324 325 324 322 321 317
331 335 337 338 337 336 337 338 338 338 338 338 337 335 332 331 330 328 328 327 328 327 328 334 336 337 337 337 336 333 333 334 331 332 334 335 335 334 332 328 325 322 319 319 322 323 324 324 324 323 324 325 323 321 321 321 318 320 324 323 326 330 329 329 330 328 327 327 327 325 325 324 323 323 323 322 318 321 325 324 324 324 322 322 322
322 328 334 336 336 336 337 338 338 339 338 338 337 335 334 335 334 332 330 329 328 328 331 334 336 338 337 336 335 335 335 334 333 334 334 335 336 334 331 328 324 320 316 318 320 321 322 324 323 323 324 326 326 327 328 326 319 316 320 321 326 331 329 329 328 328 328 328 327 326 327 325 323 322 322 322 319 321 324 324 325 323 322 323 324
319 322 326 328 331 334 335 336 336 338 338 337 337 336 336 337 337 336 334 332 330 331 334 335 336 336 336 336 335 335 337 336 336 336 334 335 336 334 331 327 324 320 316 317 318 319 320 321 323 323 324 325 327 329 330 329 320 315 320 324 328 332 331 331 328 328 329 328 328 328 328 326 324 322 320 320 320 322 324 324 325 324 322 322 323
319 321 323 324 326 328 327 328 330 334 336 336 337 337 337 337 337 337 337 335 332 333 336 336 335 335 335 335 335 335 336 336 336 336 334 335 335 334 332 328 325 321 317 317 318 319 320 320 322 323 324 325 327 329 330 330 323 320 327 330 331 332 331 331 328 328 330 329 330 329 328 327 325 322 319 320 321 323 325 325 325 325 321 319 322
318 319 320 321 323 324 323 323 326 331 334 334 335 336 335 335 336 336 337 336 335 335 336 336 336 335 335 334 334 334 334 336 337 336 335 335 334 333 332 329 328 325 320 318 317 319 321 321 323 324 324 325 326 327 329 330 327 325 328 330 332 330 331 331 328 329 330 330 331 329 328 328 326 323 320 321 322 323 325 326 325 326 322 316 316
317 317 318 318 319 321 323 322 325 330 331 330 331 331 331 331 332 335 336 336 335 335 335 335 336 335 334 335 334 334 334 336 338 337 337 335 334 334 332 330 329 328 325 321 319 319 320 321 322 323 324 325 326 327 328 329 330 328 326 327 330 329 330 330 328 329 330 330 330 329 329 328 327 325 324 323 323 323 323 325 323 324 325 319 314
317 317 318 318 319 320 321 321 325 329 328 326 327 327 327 325 325 326 331 335 336 336 335 334 335 335 335 335 335 335 334 335 336 337 336 335 335 335 333 331 330 329 327 325 322 323 325 325 323 324 325 327 327 327 328 328 330 331 328 326 327 328 329 329 329 330 330 330 330 330 329 329 328 326 326 325 324 324 324 325 322 320 325 324 320
317 317 318 318 319 320 321 322 324 326 324 324 324 324 326 325 322 320 323 329 331 332 335 335 334 334 334 335 335 335 335 335 337 336 335 334 334 335 333 331 331 330 329 328 326 326 329 330 329 327 327 329 330 330 330 329 330 331 330 328 326 327 329 329 329 329 329 330 329 330 330 329 328 326 327 326 325 325 324 326 325 320 323 325 323
316 316 317 318 318 319 320 321 322 323 322 322 322 323 324 324 323 322 321 323 323 322 326 330 332 332 333 334 332 332 334 335 336 335 335 334 333 334 333 332 332 331 331 331 330 328 329 331 331 331 330 331 331 332 332 330 330 330 330 330 328 327 329 330 329 328 329 329 329 330 330 330 328 327 327 326 326 325 324 327 326 323 323 324 324
316 317 317 318 318 317 318 320 320 320 321 321 321 322 322 321 322 323 323 323 322 321 319 321 327 330 330 331 328 328 332 334 335 336 336 336 334 334 333 333 333 332 332 332 332 330 329 330 330 331 331 332 333 333 333 331 330 330 329 330 329 328 329 330 329 329 329 328 329 330 330 331 329 328 327 327 326 325 324 326 326 325 325 324 323
316 317 318 317 317 316 316 318 319 318 320 319 319 320 320 319 321 323 323 323 323 324 322 319 321 323 323 325 325 325 328 329 331 334 335 335 335 335 335 335 334 334 333 332 332 332 331 330 331 331 331 333 333 333 333 330 328 330 330 330 330 329 329 329 329 329 329 328 329 329 329 331 330 329 328 327 327 325 325 325 326 326 326 326 322
317 317 317 317 316 315 315 317 317 317 317 317 318 319 316 317 319 320 320 323 322 321 322 321 320 320 320 323 324 322 324 326 328 332 335 335 335 335 336 336 335 335 334 334 333 334 333 331 331 332 332 332 333 333 332 329 329 330 330 330 330 330 330 329 329 329 329 329 329 329 329 330 330 330 329 329 327 326 325 324 325 325 325 326 323
316 316 316 317 316 315 314 314 316 316 316 315 314 313 312 315 319 317 316 319 319 317 319 322 323 324 324 325 325 322 323 327 330 332 333 334 335 335 335 335 336 335 334 335 334 334 334 330 327 330 332 332 332 333 332 330 330 331 330 330 330 330 329 329 329 329 329 329 329 329 330 330 330 330 330 329 328 327 326 325 325 324 323 324 324
316 314 315 316 315 315 312 311 313 315 315 314 312 312 312 315 317 315 313 314 316 319 321 322 323 325 325 325 326 325 324 326 329 331 331 333 334 335 335 335 335 336 335 335 335 334 332 327 325 329 332 333 335 334 332 331 331 331 330 330 330 329 328 328 327 328 329 329 329 329 329 330 330 330 330 330 329 328 326 326 326 325 323 323 324
316 315 315 316 315 313 309 309 310 311 313 314 314 315 316 317 317 314 312 314 316 318 321 323 324 324 324 324 325 327 327 326 328 329 329 329 330 331 333 333 331 330 333 334 335 334 330 326 327 332 334 335 336 335 334 334 332 332 332 331 331 329 328 327 326 326 327 328 329 329 329 330 330 330 331 330 330 329 328 327 327 326 325 323 323
316 315 316 316 315 310 308 310 310 311 313 315 316 317 318 318 318 315 312 314 315 314 315 320 322 322 322 323 322 324 327 327 327 328 327 327 326 325 326 325 321 322 328 331 332 333 332 332 332 334 335 335 336 335 335 335 332 332 333 331 331 330 328 326 326 326 326 326 327 329 329 330 330 330 330 330 330 329 328 328 328 327 326 325 324
316 316 316 316 313 309 309 311 312 314 315 316 317 318 319 319 319 317 314 312 310 308 308 311 314 315 316 320 321 320 321 322 324 324 324 325 324 325 324 322 320 321 326 328 328 329 331 334 333 332 333 333 335 335 335 334 331 331 334 333 332 331 330 327 326 326 326 325 326 327 329 330 330 330 331 330 330 329 329 328 328 328 327 326 325
317 316 316 316 313 309 309 311 313 316 317 317 318 318 319 319 317 316 314 311 308 306 307 309 311 311 312 316 319 318 317 317 318 319 319 320 321 324 325 325 325 326 329 330 330 329 329 331 331 330 332 334 335 336 336 334 331 331 333 333 333 333 331 328 327 326 325 326 326 326 327 329 330 330 330 331 330 330 329 329 328 328 328 327 327
317 316 316 316 314 312 309 311 313 316 318 318 318 319 318 315 314 313 312 311 309 309 310 312 314 314 313 314 316 317 316 315 316 318 320 320 321 323 324 324 325 326 327 329 330 331 331 331 331 331 332 333 335 335 335 335 332 332 332 332 335 334 332 329 328 327 326 325 326 325 325 327 329 329 330 330 331 330 330 329 329 328 328 328 328
317 317 317 316 316 314 310 312 314 315 318 319 319 320 316 312 311 311 311 311 311 312 313 314 315 315 315 315 315 316 315 313 315 318 320 320 320 321 322 323 324 324 325 326 327 328 329 330 331 332 333 333 333 331 332 334 332 332 333 333 333 333 334 331 328 328 327 326 325 324 325 327 327 328 329 330 331 331 330 330 329 329 328 328 328
317 317 317 316 316 315 311 311 314 316 319 318 317 316 314 312 312 312 313 313 314 315 315 315 315 315 315 315 316 315 313 314 315 317 318 319 319 320 320 321 323 323 323 324 325 325 325 327 328 330 331 332 333 331 331 333 332 332 333 334 333 334 338 334 329 329 328 327 326 324 324 327 327 327 328 330 331 331 331 330 329 329 328 328 328
317 317 317 316 316 315 312 311 313 316 318 316 314 313 312 312 313 314 315 315 316 315 314 314 314 315 315 314 314 313 314 315 316 316 316 318 319 319 319 319 321 322 323 323 323 323 324 325 326 327 329 331 333 332 333 333 332 331 331 333 332 332 335 333 332 334 331 329 329 328 327 327 328 328 328 329 330 331 330 330 329 329 329 328 328
317 317 317 317 316 316 314 312 313 316 317 315 313 312 312 312 311 313 314 314 315 313 311 312 313 312 312 312 312 314 316 317 317 317 318 318 319 318 318 318 319 320 321 322 322 322 322 323 324 325 326 328 330 331 332 332 332 332 331 331 331 330 330 330 333 336 336 335 332 330 330 329 328 328 328 328 329 330 330 329 328 328 328 328 327
317 317 316 316 317 316 316 315 315 316 317 316 314 314 313 311 310 313 313 314 313 310 310 310 309 309 309 311 311 314 318 318 318 318 318 318 319 318 318 317 317 318 319 320 321 321 322 322 323 323 324 325 326 327 328 329 331 332 332 331 331 331 330 330 332 333 336 339 335 331 331 330 329 329 329 329 329 330 330 328 328 327 327 328 327
317 317 317 316 316 317 317 317 317 317 317 317 316 315 315 311 311 313 314 315 313 308 308 308 307 307 309 312 313 314 317 319 319 319 318 317 316 315 314 313 314 315 316 317 318 319 320 321 321 321 322 322 323 325 326 327 328 328 329 329 331 332 332 332 334 332 332 334 336 335 331 329 330 330 330 330 330 330 330 329 328 327 327 327 327
318 317 317 317 317 318 318 319 319 318 317 317 316 316 316 312 313 315 315 315 312 307 308 309 306 306 308 312 314 314 315 317 318 319 318 315 311 308 307 307 308 308 309 311 313 317 319 319 319 320 320 321 321 322 323 324 325 327 328 329 330 332 332 333 333 332 330 330 332 334 329 328 330 329 329 330 330 330 329 328 329 327 327 327 326
319 318 319 318 318 318 319 320 320 319 318 318 316 317 316 313 315 318 317 317 313 308 309 310 308 308 308 309 313 315 315 315 315 316 315 312 308 306 305 304 305 305 306 307 310 314 317 317 318 318 318 319 319 320 321 321 322 324 326 328 329 330 330 331 331 331 330 329 330 331 329 328 329 328 328 329 329 330 330 328 328 327 327 327 326
Wind_Speed
15 15 13 12 13 14 15 16 17 17 16 16 15 15 15 16 16 16 18 18 18 16 14 15 15 16 16 17 17 18 20 21 20 19 18 18 17 17 17 17 17 17 17 16 15 15 14 14 14 14 14 14 14 14 14 14 16 17 18 18 18 20 22 24 23 22 20 18 17 17 19 18 18 17 17 18 19 19 19 18 18 18 18 17 17
19 17 15 13 12 13 14 15 16 16 16 16 16 15 15 16 16 16 18 19 18 16 14 14 15 15 15 15 17 18 18 19 19 18 17 17 16 16 16 16 16 16 16 15 15 15 14 14 15 15 16 16 16 16 17 17 18 18 18 18 20 22 23 23 22 22 20 17 17 17 19 18 17 16 16 17 17 18 17 17 16 16 16 16 16
21 19 16 14 13 13 14 14 15 15 16 16 16 15 15 16 16 16 17 18 18 17 15 14 15 14 14 14 16 17 17 18 18 17 16 15 15 15 15 16 16 15 15 15 15 14 14 15 15 15 17 17 17 17 18 18 18 18 19 19 21 22 21 22 22 23 20 18 17 17 18 17 16 15 16 16 17 17 16 15 15 15 16 15 15
21 19 16 14 12 12 13 13 14 14 15 16 16 15 15 15 16 16 16 17 17 17 15 14 15 14 13 13 15 15 16 17 17 16 15 15 15 15 15 16 15 15 15 14 14 14 14 15 14 16 17 17 17 18 19 18 19 20 21 21 21 21 21 21 22 22 20 19 19 18 18 18 18 17 17 16 16 17 16 15 14 15 15 15 15
21 19 16 15 13 13 12 13 14 14 14 15 16 15 16 16 15 15 15 16 16 16 14 14 14 14 13 12 13 14 15 15 16 16 15 14 14 14 15 15 14 14 13 13 13 13 14 14 14 16 17 17 17 19 19 20 22 23 23 23 22 23 22 21 21 20 20 20 19 17 17 17 18 17 16 16 15 16 15 14 14 14 14 14 14
21 18 16 15 13 13 12 13 14 14 13 14 16 16 17 16 16 15 15 15 15 15 14 13 13 14 13 12 12 13 13 13 14 15 14 14 13 13 14 14 14 13 12 12 12 12 13 14 15 17 18 17 17 19 22 23 24 25 26 25 23 23 23 22 20 18 18 18 17 17 17 17 18 17 16 16 15 14 14 13 14 13 13 13 13
20 18 16 15 14 13 12 13 13 14 13 14 16 17 16 16 16 15 15 15 15 15 13 12 12 13 13 12 12 12 13 12 12 13 14 13 12 12 12 13 14 13 12 12 12 12 12 14 16 18 19 18 18 21 24 25 25 27 26 25 25 23 21 20 19 18 16 17 17 18 18 17 18 17 15 15 14 13 13 13 13 13 12 12 12
19 18 16 15 14 13 13 13 13 14 14 14 15 17 16 16 16 16 15 15 16 16 14 12 11 11 12 11 11 11 11 12 12 12 13 13 12 12 12 12 13 13 12 12 12 12 12 14 16 20 21 21 22 23 25 25 24 25 26 25 25 23 20 18 16 16 15 16 17 18 18 17 16 16 16 15 14 13 12 11 11 12 12 12 11
19 17 16 15 14 14 14 14 14 14 15 15 15 16 15 16 16 15 15 15 16 16 15 13 11 11 10 10 10 10 10 10 11 12 12 13 12 12 12 12 13 13 12 12 12 12 12 13 16 20 21 22 22 22 23 23 22 22 23 22 21 19 18 17 15 14 14 15 16 16 16 16 16 16 16 15 14 12 11 10 10 11 11 11 11
20 17 16 15 15 14 14 15 15 15 15 15 15 15 15 16 15 15 15 15 16 16 15 13 12 11 10 9 9 9 9 10 10 11 12 13 12 12 13 12 13 13 12 12 12 11 12 13 16 19 20 20 20 20 20 20 19 19 19 18 16 14 13 15 15 13 15 15 13 12 13 15 16 15 14 14 12 10 9 10 11 11 11 10 10
20 17 16 15 15 15 15 16 15 15 15 14 14 14 14 14 14 15 15 16 17 16 15 14 12 11 10 9 8 9 9 9 10 10 11 12 12 12 13 12 12 12 12 12 11 11 11 13 15 17 17 18 18 17 17 17 17 16 15 14 13 9 9 15 16 15 15 13 11 10 11 13 15 14 12 11 10 10 10 11 11 11 10 9 9
20 17 16 15 16 15 16 16 16 15 14 14 13 13 13 12 14 14 14 16 17 16 15 14 12 11 9 9 8 8 9 9 9 10 10 11 12 13 12 11 11 10 11 11 10 10 10 12 14 14 15 15 16 16 15 14 14 13 13 12 10 8 10 17 17 15 14 11 10 9 9 11 13 12 11 10 9 9 10 11 11 11 10 9 9
20 18 16 15 15 16 16 16 16 15 13 13 13 12 11 12 14 14 14 16 18 18 16 14 12 11 10 8 7 8 9 9 9 10 10 11 11 11 12 11 10 10 10 11 10 9 10 11 13 13 13 13 13 14 14 12 12 12 11 10 10 10 13 18 17 15 13 10 8 8 9 11 11 11 11 10 9 10 11 12 11 10 9 9 9
21 18 16 15 15 15 16 16 16 15 13 13 12 12 11 11 13 13 13 14 17 18 16 14 12 11 10 9 7 8 8 8 9 9 10 11 11 11 11 11 10 10 10 11 10 9 9 10 12 13 13 12 11 12 13 12 12 12 11 10 10 11 14 19 18 14 12 9 8 7 9 11 12 11 11 10 10 11 12 11 10 9 9 8 9
20 19 16 15 15 14 15 15 15 15 14 14 12 11 11 11 12 11 12 14 14 16 15 14 12 10 9 8 8 8 8 8 9 9 10 11 11 11 11 10 10 10 10 10 9 9 8 9 12 13 13 12 10 11 12 12 12 13 12 11 11 11 11 16 17 14 11 9 8 8 8 11 12 11 11 10 9 11 11 10 10 9 8 8 8
19 19 17 15 15 14 14 14 13 14 14 14 13 12 11 11 11 10 12 15 14 15 15 13 12 10 9 9 8 8 8 9 9 9 10 10 10 10 10 10 10 10 9 8 8 8 8 9 11 12 12 12 10 9 11 11 12 13 12 11 10 9 8 13 15 14 11 10 9 8 8 10 11 11 11 10 10 10 10 10 10 8 8 8 8
19 19 17 15 14 13 13 14 13 12 12 13 13 13 12 11 12 11 12 15 14 14 14 14 12 11 10 10 8 8 9 9 9 10 10 9 9 9 9 9 9 9 8 7 7 7 7 8 10 12 12 11 10 9 10 11 12 13 11 9 8 8 8 12 14 13 11 10 8 7 7 9 10 11 11 9 9 9 9 10 9 9 9 9 9
18 17 16 15 14 13 12 12 11 9 9 11 12 12 12 12 12 11 13 14 14 14 14 13 12 12 11 10 9 9 9 9 10 10 9 9 9 8 8 8 8 8 8 6 5 6 7 7 9 12 12 11 11 11 10 11 12 12 10 8 8 8 9 13 15 14 11 9 8 7 6 7 9 9 9 9 8 9 9 9 9 9 9 9 9
16 16 16 15 14 13 12 11 9 8 8 10 11 11 11 12 12 12 13 14 14 14 13 12 12 12 12 10 9 9 9 9 9 9 9 9 8 7 8 7 7 8 7 5 5 6 7 7 8 11 13 12 12 12 11 10 11 12 10 8 7 8 10 14 15 13 10 9 7 6 5 6 7 7 8 8 8 8 8 8 9 8 8 8 8
15 15 15 15 15 14 13 11 9 8 9 9 9 10 11 11 12 12 12 13 13 13 12 12 13 12 11 10 9 9 9 9 9 8 8 9 8 7 7 7 7 8 7 7 7 7 8 8 9 12 13 12 11 12 12 9 11 11 10 8 6 7 11 15 16 13 11 10 7 5 5 5 6 7 8 7 7 6 6 7 8 7 7 7 7
15 15 15 15 15 14 13 11 9 10 10 9 9 10 11 11 12 12 12 12 12 12 12 12 14 13 11 10 10 9 9 9 9 9 8 9 8 7 7 6 8 9 7 8 8 8 9 9 11 13 13 12 11 12 11 9 11 12 10 8 6 8 12 15 15 13 11 9 6 5 5 5 6 6 7 7 6 6 6 6 6 6 5 6 5
16 15 14 14 14 14 13 13 12 11 11 10 10 9 11 11 11 12 12 11 11 12 11 12 14 14 13 11 10 10 10 10 10 10 9 9 9 8 6 6 8 8 6 7 7 8 9 10 12 13 13 13 11 11 11 9 11 13 11 9 8 9 11 15 14 13 11 9 6 5 5 4 5 5 5 6 6 5 5 6 6 5 4 5 5
16 15 14 13 13 14 13 14 13 12 12 11 10 10 11 11 11 11 11 11 10 10 10 12 14 13 13 12 12 11 10 9 9 10 10 10 9 7 7 7 8 7 6 6 7 8 9 11 13 13 13 13 12 11 10 10 11 14 13 10 8 8 11 14 13 11 10 8 6 5 4 4 4 5 5 5 6 6 5 6 6 4 4 4 5
17 17 16 13 12 12 12 13 13 13 12 11 11 10 11 11 11 11 10 11 10 9 9 10 12 12 13 13 12 10 9 8 7 8 9 10 9 9 8 8 8 7 6 6 7 8 9 11 12 12 13 13 13 12 10 10 11 14 15 11 8 8 10 13 12 11 10 8 7 5 4 3 3 4 4 4 5 6 6 6 6 5 4 3 3
17 16 16 15 13 11 12 13 13 14 13 12 12 11 12 12 12 11 11 11 10 10 8 9 10 10 12 12 11 9 7 7 6 7 8 10 11 11 11 10 9 8 7 6 7 9 10 11 12 12 13 13 12 12 10 9 10 14 16 12 9 8 9 12 12 10 9 7 7 6 4 2 2 4 5 5 5 6 7 6 6 5 4 4 2
19 17 17 15 13 12 13 14 13 13 12 13 12 13 14 12 12 12 12 12 11 11 9 9 9 9 9 11 11 9 7 8 7 7 8 11 12 12 12 11 10 9 7 7 7 8 10 11 12 12 13 12 11 10 10 7 7 12 15 14 11 8 7 10 12 10 8 8 7 6 3 1 3 4 6 6 5 6 7 7 6 6 5 5 3
21 21 20 17 15 14 13 12 11 11 12 13 13 14 14 12 12 11 12 12 12 12 10 10 9 9 9 10 11 10 9 9 8 8 8 10 12 13 11 10 9 8 8 7 8 9 10 12 12 12 12 12 11 10 9 7 6 9 13 12 10 7 5 8 12 11 9 8 6 5 3 1 3 5 7 7 6 7 7 6 6 6 5 5 5
21 22 21 19 19 16 13 12 10 10 11 11 12 13 13 12 12 11 12 13 13 13 12 11 11 10 10 10 11 11 10 9 8 9 10 10 12 14 12 10 9 7 8 8 8 9 11 13 13 12 12 12 12 11 9 8 8 11 11 9 8 7 6 8 12 13 10 8 6 5 4 2 3 5 6 7 6 7 7 6 6 6 6 6 6
20 19 17 16 16 14 13 12 10 9 10 10 11 11 10 9 10 10 11 13 14 14 12 12 12 10 10 11 11 12 11 9 8 9 10 11 13 15 15 13 11 9 8 9 9 10 11 14 14 13 13 13 13 13 12 9 10 13 12 9 8 7 7 8 12 14 12 9 8 6 5 4 3 4 5 6 7 6 7 7 7 6 5 5 7
20 17 15 14 12 12 11 9 11 12 13 12 11 10 8 7 7 8 10 11 13 14 12 12 12 11 10 10 11 11 10 8 8 10 11 13 15 17 18 16 14 12 11 11 11 11 12 13 14 13 13 14 14 14 14 14 13 14 13 12 10 8 7 9 11 14 13 10 9 7 7 5 5 5 5 6 7 7 7 8 8 7 5 5 5
19 17 15 14 13 12 10 10 13 15 14 13 12 11 10 9 8 6 8 10 11 12 11 11 11 10 9 9 10 10 11 9 9 10 12 14 17 19 20 18 16 15 14 14 13 14 14 13 14 14 15 15 15 15 15 17 18 15 14 14 14 10 9 10 10 13 12 11 10 10 9 8 8 7 6 6 7 8 8 9 10 7 6 6 5
19 17 15 14 14 13 11 12 15 16 15 13 11 10 9 10 9 8 8 8 7 8 10 10 9 7 7 9 9 9 9 8 8 10 10 12 16 19 20 19 18 17 16 16 15 16 16 15 15 16 16 16 17 17 17 19 21 17 15 14 15 14 12 12 12 12 12 12 12 12 11 11 11 9 9 8 7 9 9 11 11 8 7 7 6
19 17 15 14 14 13 12 13 15 15 15 13 12 11 10 9 8 8 10 9 7 5 7 9 8 6 6 8 7 6 7 7 9 10 11 12 14 15 17 18 18 18 18 18 18 19 19 17 16 17 18 17 18 18 17 21 23 19 17 16 15 15 14 14 14 14 13 12 12 13 13 13 13 12 12 11 9 9 10 12 13 10 9 9 8
20 18 16 15 14 12 12 13 14 14 14 13 12 12 10 8 8 8 9 9 7 7 6 6 7 6 7 7 5 5 5 7 8 9 11 13 13 13 14 15 17 19 20 20 19 19 20 19 18 19 20 19 18 16 16 22 26 20 19 18 17 16 16 16 16 16 15 13 13 13 14 15 14 14 14 13 12 11 10 13 14 12 11 11 9
21 19 16 15 14 12 12 13 13 13 13 12 11 11 9 8 9 7 8 8 6 6 6 5 6 6 5 5 5 6 5 5 7 8 10 13 14 13 13 12 13 16 20 21 21 20 20 19 18 19 21 20 18 16 16 22 25 21 20 20 19 18 17 17 18 18 16 15 14 14 14 15 16 16 15 15 15 13 12 13 15 15 14 12 11
22 20 17 16 14 12 13 14 13 13 12 11 11 10 8 9 11 8 8 9 7 6 6 6 6 6 4 4 5 6 6 6 6 7 7 10 12 12 11 10 9 11 15 18 20 20 19 17 15 15 18 19 17 14 15 21 22 18 19 20 20 20 18 17 18 19 18 16 16 15 15 16 16 17 17 16 16 15 14 14 15 16 15 15 13
23 21 20 18 16 14 12 13 14 14 14 13 12 9 8 11 11 9 9 9 7 6 6 8 8 7 6 5 5 5 5 5 5 6 5 6 7 9 11 11 8 7 11 14 16 17 18 15 12 13 15 17 17 14 14 19 21 18 18 18 18 18 19 18 17 18 19 18 17 17 17 17 17 18 19 18 17 16 16 15 15 15 16 16 15
24 23 22 20 19 16 13 14 15 15 16 15 14 13 13 14 12 9 8 8 9 9 9 11 10 8 6 4 4 5 4 4 5 5 5 5 6 7 10 11 9 7 8 12 14 16 17 15 13 15 16 18 19 16 15 17 21 21 18 18 17 16 18 19 17 17 19 20 20 19 18 17 18 19 20 20 19 18 17 17 16 16 17 18 17
26 23 23 22 20 19 18 19 17 16 17 17 16 16 15 14 14 11 9 8 9 10 11 11 11 8 6 5 4 5 4 4 4 4 4 4 4 4 6 8 7 5 6 10 13 14 16 16 17 18 19 19 17 16 16 14 17 22 21 19 17 16 18 19 18 18 19 21 21 21 19 18 19 19 20 20 20 20 18 18 18 17 18 18 19
27 25 25 24 23 23 22 22 20 19 19 19 17 15 13 13 13 12 10 10 9 8 8 9 9 6 4 4 4 4 5 4 4 3 2 2 2 2 4 5 3 2 3 7 10 13 15 17 19 18 18 19 16 16 16 11 10 16 19 19 19 17 18 19 20 20 21 21 21 22 21 20 19 20 21 21 22 22 21 20 19 18 18 19 19
28 28 28 26 25 26 25 23 23 21 20 19 17 15 14 13 13 13 11 10 8 7 6 6 5 4 3 4 4 3 3 3 3 2 1 1 1 1 1 2 3 1 1 2 5 10 13 15 17 14 13 17 18 17 16 11 9 11 13 14 18 20 21 20 21 22 23 23 22 22 23 22 21 21 21 22 23 23 23 22 21 20 19 19 20
32 31 30 29 27 27 26 24 24 23 21 19 17 16 15 14 16 16 13 11 9 8 8 7 5 4 4 5 3 2 2 2 1 1 2 1 2 3 4 4 2 3 3 1 2 5 8 12 15 14 11 15 17 17 18 15 10 8 7 6 11 18 22 23 22 22 23 24 24 23 23 24 24 23 22 22 24 25 26 25 24 23 21 20 20
35 33 32 30 29 28 26 25 25 24 22 20 17 16 15 16 18 16 14 12 10 8 8 7 5 4 5 5 4 3 2 1 2 3 4 3 3 3 3 5 5 5 4 3 3 3 4 6 9 11 13 14 13 13 18 19 14 8 3 2 4 7 12 17 21 24 25 25 26 25 24 25 25 24 24 24 25 26 27 27 26 26 24 22 21
34 34 33 32 31 30 28 26 25 24 22 19 17 17 17 18 18 15 13 13 10 8 8 7 5 3 4 4 3 2 1 2 4 5 5 4 2 2 1 2 4 5 5 4 5 5 5 6 7 7 10 14 12 10 13 19 19 11 4 1 1 1 4 8 15 23 26 25 26 27 26 26 26 25 25 26 26 27 27 28 28 28 27 24 23
34 35 35 35 34 32 30 27 25 23 21 19 19 20 20 20 19 16 14 13 11 9 9 8 7 5 4 3 3 1 1 3 4 4 3 3 2 1 0 1 1 2 4 4 5 5 5 6 7 7 7 9 10 10 13 18 22 18 11 4 1 0 3 3 7 15 23 25 27 29 28 27 27 27 27 27 27 27 27 27 28 29 29 27 25
34 37 38 37 35 34 31 28 25 23 21 21 23 23 22 21 20 19 16 15 14 11 10 10 9 7 5 4 2 2 3 4 4 4 2 2 2 1 0 1 1 0 1 3 3 3 3 5 6 7 7 8 8 8 10 14 18 19 17 13 7 3 4 1 1 4 11 18 23 27 29 30 29 28 29 29 28 28 27 27 28 29 30 29 28
36 38 37 36 35 35 32 29 26 24 23 24 24 23 21 19 19 19 19 19 17 13 11 10 9 8 6 4 3 4 4 5 5 5 4 2 2 1 0 1 1 1 0 0 1 2 3 4 5 6 7 7 7 7 8 9 12 14 15 17 16 12 9 5 3 1 2 7 14 19 24 28 29 30 30 30 30 30 28 27 27 29 31 31 29
35 35 35 36 36 35 33 30 28 26 25 25 24 22 20 19 18 19 20 19 17 15 13 11 9 8 7 5 4 4 4 4 6 6 4 2 2 1 1 1 1 0 1 1 1 3 3 3 3 5 6 7 7 7 8 8 8 10 12 15 17 17 17 14 10 5 2 2 6 10 14 17 21 25 28 30 30 30 29 28 28 29 31 32 30
33 36 38 37 36 35 34 31 30 29 27 26 24 22 20 19 19 20 20 19 17 16 14 12 10 8 8 7 6 4 4 5 5 4 4 2 1 0 0 1 1 1 1 2 3 4 4 4 4 5 5 6 6 6 7 8 7 9 10 13 15 16 18 19 16 12 6 4 3 4 7 9 11 16 21 26 29 30 30 29 29 30 32 33 32
34 37 37 35 35 35 34 33 33 31 29 26 25 23 21 20 20 21 21 20 19 17 15 14 12 9 8 8 7 6 5 5 5 4 3 1 2 3 3 4 4 3 3 3 2 3 4 4 5 6 6 6 6 6 6 7 8 10 11 12 13 13 13 12 14 15 10 8 7 6 8 9 7 10 13 16 21 27 30 30 30 31 33 34 33
32 32 31 32 34 35 35 35 34 33 30 27 26 25 23 21 22 22 21 22 22 20 18 17 14 12 10 9 8 8 6 5 5 5 3 3 3 4 4 4 4 4 4 4 4 5 6 7 8 8 8 7 7 7 7 6 7 9 11 12 14 15 14 13 15 16 11 8 8 6 11 13 11 14 16 16 17 19 22 27 30 32 33 34 34
Wind_Direction
160 153 148 151 144 137 136 137 138 140 139 140 140 140 142 143 144 142 140 138 136 131 126 123 124 125 119 114 112 112 111 111 111 110 109 109 108 108 106 104 103 99 96 94 94 96 97 96 97 102 108 114 118 120 121 121 120 120 120 119 118 117 115 111 106 104 107 104 103 107 105 101 97 96 94 96 97 96 93 90 89 88 86 84 82
157 154 154 156 150 143 140 139 141 142 143 144 143 145 145 148 149 146 144 143 141 135 130 128 127 128 123 118 117 116 114 114 114 114 112 112 111 110 108 105 102 98 95 95 96 98 100 97 95 102 109 116 121 123 123 123 123 124 123 122 121 122 122 118 112 108 110 107 101 103 105 102 101 99 95 95 94 92 91 89 89 89 88 86 84
153 155 156 156 153 148 144 143 143 144 146 147 147 149 150 153 153 151 149 148 146 139 135 133 130 130 125 120 120 121 119 118 118 118 117 115 114 112 111 109 106 102 99 99 99 101 103 101 96 100 108 115 120 121 122 124 123 123 121 120 123 122 122 120 119 119 118 112 105 104 104 103 100 98 96 95 94 91 90 88 87 87 87 85 83
154 154 155 155 156 153 148 147 147 148 148 149 150 152 155 156 157 156 154 154 151 144 139 137 135 131 127 122 123 125 122 123 123 122 122 119 118 117 116 114 112 107 104 103 101 103 107 106 100 99 107 114 118 120 122 122 120 119 117 118 121 116 116 120 124 127 122 115 113 110 107 106 101 98 97 97 98 96 93 90 87 86 87 85 83
154 152 155 155 156 157 152 151 150 152 151 154 156 157 159 159 160 161 159 158 156 149 143 140 138 134 130 125 126 127 125 125 126 125 124 121 120 120 121 119 116 110 107 106 102 105 111 112 103 99 107 115 118 120 122 120 119 119 117 117 116 109 111 117 122 126 125 121 120 114 109 107 104 101 100 99 100 98 97 96 93 90 89 87 85
154 152 156 157 157 157 156 153 151 151 150 157 163 162 160 161 162 164 164 162 161 156 148 144 142 137 132 129 130 130 126 126 126 126 124 122 122 121 122 122 119 115 111 109 106 107 113 117 106 102 109 116 120 122 123 122 121 121 118 117 113 106 108 112 114 118 122 124 121 114 108 106 105 104 104 102 100 99 99 99 96 93 91 90 88
154 155 158 157 155 154 158 155 150 149 146 156 166 166 162 163 164 166 167 167 167 162 155 151 149 143 135 131 133 133 128 126 128 128 124 125 126 124 126 128 126 122 119 113 110 109 114 121 110 106 113 118 122 124 126 127 127 126 124 121 116 108 106 109 109 109 112 120 119 114 112 112 111 110 110 107 104 103 101 102 100 97 94 92 90
155 158 159 156 152 152 157 153 149 146 144 152 163 168 168 167 166 167 169 170 170 167 162 157 157 150 137 133 134 137 133 130 133 132 125 125 129 129 130 131 131 128 124 117 114 112 115 123 113 110 118 122 125 129 130 131 132 132 131 128 123 116 111 112 112 107 107 118 120 118 118 118 117 114 112 110 109 108 106 111 109 103 99 96 94
159 159 157 153 148 150 153 149 145 144 146 151 159 169 174 172 169 170 172 173 173 171 166 160 162 156 141 135 134 136 137 137 139 139 130 126 132 133 133 133 133 132 128 122 118 116 117 123 116 113 121 125 129 132 133 132 135 136 136 134 131 125 118 120 123 113 108 118 121 120 122 122 119 117 117 118 119 118 111 114 111 104 99 97 96
160 158 155 149 144 148 148 144 143 144 146 150 157 165 172 174 174 176 178 177 175 173 168 163 162 157 146 138 135 136 140 145 144 143 134 130 134 136 138 137 137 137 133 126 121 120 118 123 120 117 121 129 133 134 135 134 136 138 138 137 136 133 127 132 135 123 115 116 115 117 124 126 123 122 125 125 128 134 122 112 109 105 102 100 96
159 156 153 146 143 146 144 142 141 142 144 147 154 161 168 172 177 181 182 181 175 171 168 164 162 158 151 143 140 139 143 148 147 146 139 136 138 139 142 142 142 140 135 127 124 121 117 125 126 122 120 132 142 139 139 138 137 138 137 135 131 125 132 146 145 133 123 114 105 110 126 132 127 124 129 129 131 139 130 115 110 107 105 102 96
158 157 152 147 142 143 142 141 140 140 140 142 148 157 164 169 177 182 185 183 172 167 167 164 162 158 154 149 146 144 147 150 149 150 146 144 143 143 144 145 146 140 135 127 123 119 118 128 130 127 121 132 149 150 148 145 144 144 140 132 118 107 134 155 153 140 130 116 105 108 129 140 132 125 126 129 131 135 130 118 111 109 106 103 97
156 158 153 147 140 142 142 140 141 138 135 137 143 151 158 164 170 177 185 184 168 164 167 163 162 159 155 151 149 149 151 153 153 155 153 151 149 146 145 146 146 142 137 128 123 121 123 132 134 135 128 131 148 153 155 155 156 156 149 136 114 111 142 158 158 146 134 120 111 113 136 144 137 130 128 126 126 127 123 117 113 113 109 104 98
157 158 152 143 138 142 144 142 141 135 132 133 136 141 148 157 165 174 181 181 166 160 163 162 162 160 157 153 155 157 156 156 157 160 157 156 155 152 150 148 147 144 138 127 126 126 128 136 138 142 137 137 148 153 156 158 162 162 155 141 119 116 144 160 160 153 141 128 117 119 135 146 144 135 132 130 128 124 120 122 120 116 113 107 99
158 156 151 144 139 141 142 141 137 133 131 130 132 133 139 149 161 172 176 179 168 158 161 163 162 160 159 155 158 161 160 158 160 163 158 158 158 156 158 154 149 145 136 127 126 130 135 137 137 144 144 142 149 154 156 160 163 160 152 138 123 117 142 164 165 159 149 138 127 125 138 152 153 140 134 136 136 130 124 127 123 117 117 112 103
158 158 156 150 146 144 142 139 134 131 129 130 133 132 136 147 158 167 172 178 172 162 165 165 162 159 160 159 159 163 162 160 161 165 159 157 157 158 161 156 150 146 136 127 127 133 141 138 134 143 147 144 150 155 156 163 162 157 149 134 119 111 140 172 173 166 154 144 133 130 145 157 155 143 137 140 141 138 132 129 125 122 121 116 110
158 162 162 159 158 154 148 141 136 132 131 132 133 136 141 149 157 162 167 175 174 170 169 166 164 161 163 162 161 165 165 163 165 168 161 158 160 159 159 156 153 147 139 132 132 138 143 142 136 142 149 147 153 161 161 165 163 158 151 132 109 102 140 174 176 169 158 146 136 130 143 155 153 145 141 143 143 139 135 131 129 127 121 120 117
160 166 166 166 167 163 157 147 143 140 139 138 137 139 144 150 156 158 163 172 175 172 170 168 168 165 167 166 164 169 170 169 171 172 164 163 166 160 157 160 162 151 145 144 143 146 147 146 139 143 151 153 158 167 172 172 169 163 155 133 101 95 137 168 171 168 161 145 133 124 132 151 154 149 146 148 145 140 139 138 137 132 125 122 119
161 169 170 172 172 169 166 158 156 152 150 149 146 145 145 150 153 155 161 169 173 171 172 173 172 170 170 169 169 173 174 176 178 176 170 171 171 165 161 162 171 163 156 159 156 150 148 148 144 144 152 158 163 172 180 179 178 172 159 138 95 91 134 161 167 165 159 145 131 119 125 151 157 150 148 150 149 145 147 146 142 136 130 125 122
160 168 171 174 174 173 173 169 167 160 158 156 156 155 153 154 155 157 162 169 173 173 178 180 178 177 175 174 174 176 176 180 183 179 176 178 175 172 166 156 173 177 165 161 159 153 150 148 146 147 152 159 162 171 183 183 182 179 164 143 93 94 137 158 166 163 156 146 134 121 122 149 158 152 153 158 158 157 157 149 144 142 138 132 130
157 163 167 171 173 175 177 172 163 159 163 164 166 163 161 165 164 163 166 170 175 180 187 188 184 181 181 182 181 182 180 182 187 184 181 183 178 174 165 153 172 180 168 160 160 158 155 150 149 150 151 156 158 164 179 185 183 182 169 147 95 95 139 159 164 160 155 148 136 125 124 146 160 161 166 169 166 171 171 155 149 148 140 134 138
157 160 163 164 167 171 173 167 156 154 160 164 169 169 171 174 172 170 171 172 176 184 187 189 191 189 187 187 189 190 185 188 191 185 183 183 179 173 162 156 170 176 169 162 163 164 160 153 153 156 154 156 160 161 173 180 183 185 173 150 106 98 137 157 162 160 155 149 138 126 126 146 165 177 183 177 172 181 180 161 159 159 148 137 137
163 165 167 164 164 164 166 164 157 155 157 159 166 174 179 180 179 177 173 172 179 184 183 187 193 196 193 191 193 191 187 192 196 189 184 180 178 179 170 163 167 170 169 163 161 162 161 159 158 160 159 159 161 161 172 177 180 186 179 159 125 112 142 159 165 166 159 150 141 129 129 151 175 186 196 190 182 188 184 168 170 174 160 146 135
169 171 171 170 170 165 167 165 158 160 161 162 168 179 186 183 181 181 176 175 181 183 188 192 193 201 199 194 194 187 183 190 199 201 193 185 182 181 173 165 166 164 164 161 156 160 163 164 162 162 162 162 161 155 163 172 179 189 187 173 145 130 150 165 171 170 164 155 145 135 133 156 186 199 208 207 193 187 188 182 183 191 178 164 146
155 165 170 175 175 167 169 168 162 166 169 169 172 181 184 181 182 184 183 182 184 185 197 200 197 206 201 196 195 189 189 195 204 208 206 200 189 181 173 166 168 162 156 160 159 162 164 167 168 166 164 166 164 150 142 154 174 189 196 188 162 145 153 168 175 173 171 162 152 145 140 154 203 225 224 218 209 196 198 195 193 202 188 181 177
129 142 157 166 170 165 166 168 167 170 174 173 173 180 180 177 182 186 187 189 190 189 197 204 205 211 205 200 200 201 205 207 207 200 209 208 188 177 173 171 173 162 154 161 166 166 166 171 176 175 172 172 171 158 137 135 166 187 200 195 174 160 156 170 179 180 179 173 158 151 144 165 221 235 234 234 226 208 205 197 197 208 190 185 197
118 126 137 139 144 149 155 160 162 169 173 174 176 180 182 180 183 187 188 191 194 194 199 207 209 214 214 211 209 209 211 215 210 195 204 206 189 181 179 180 180 168 159 163 167 168 168 175 184 186 185 184 182 176 153 135 150 174 185 186 177 177 179 183 188 189 186 180 169 163 162 186 222 231 235 241 232 211 210 207 208 214 204 190 192
119 121 128 129 132 135 138 137 141 160 165 170 178 180 185 188 190 192 193 194 197 200 202 206 210 216 218 217 217 217 219 223 217 208 203 195 192 190 186 187 190 181 168 170 176 174 172 177 188 193 196 198 197 199 186 159 149 156 166 174 179 188 207 203 195 193 191 190 189 187 185 190 222 233 235 237 231 214 206 213 216 215 220 210 205
126 123 127 131 136 138 139 128 125 143 147 153 167 173 180 187 193 197 198 198 200 205 207 208 211 216 219 216 218 221 225 221 210 216 204 190 193 192 190 190 192 194 183 183 190 191 188 186 192 199 204 210 214 218 218 200 171 165 172 180 184 191 214 209 194 194 196 201 206 204 203 207 222 231 235 230 229 223 209 210 212 208 226 233 225
130 129 131 135 141 147 147 130 123 133 137 138 145 148 150 158 173 187 194 195 199 206 210 212 213 216 220 215 213 216 220 214 203 210 202 193 192 189 193 195 193 197 196 198 204 209 209 203 204 210 215 221 227 232 236 227 199 181 182 185 186 189 210 209 195 200 206 208 212 212 214 220 223 226 230 228 231 232 222 217 221 221 229 247 241
133 132 133 137 140 144 141 129 130 134 135 132 130 128 126 124 123 143 172 185 195 202 203 208 213 215 217 214 212 212 217 218 205 207 206 200 195 193 198 200 199 200 201 201 208 218 223 222 223 226 231 236 241 247 248 232 207 192 187 187 190 189 198 205 199 205 212 217 220 219 220 220 220 222 223 228 232 234 231 222 230 243 230 234 242
139 138 137 140 142 144 135 128 134 137 137 132 127 125 122 116 107 109 128 148 169 190 197 198 203 205 206 211 211 205 211 213 203 206 211 208 203 201 203 204 205 207 206 205 209 219 226 232 237 242 243 246 252 255 255 232 206 197 194 190 192 193 198 205 204 205 212 223 226 225 225 222 219 220 223 228 230 233 235 220 229 254 237 229 236
140 142 145 145 144 150 140 131 135 136 136 135 131 128 121 115 115 119 117 113 107 129 174 190 197 193 182 186 186 183 187 189 199 206 202 206 213 211 208 208 211 213 212 210 212 218 225 231 240 249 250 255 257 255 255 232 209 202 202 197 197 201 205 209 209 208 214 224 225 227 230 228 222 218 222 226 229 234 235 221 228 249 244 243 238
142 146 150 147 147 155 152 142 140 139 134 132 135 132 126 122 128 134 129 118 97 93 114 154 184 192 184 172 142 134 159 175 196 206 195 195 207 212 209 209 214 217 217 216 217 219 226 231 239 248 250 258 256 255 258 230 213 209 208 204 203 206 210 212 217 217 217 221 221 225 229 229 226 221 221 223 227 235 235 227 232 242 240 247 246
149 152 154 151 149 158 162 154 146 145 141 139 141 138 137 139 136 136 140 137 122 110 107 125 167 188 199 184 140 123 132 161 185 196 197 196 201 206 208 210 213 214 217 220 223 224 225 230 242 252 253 257 253 253 253 224 212 213 212 211 211 211 214 214 219 223 224 223 222 223 224 227 228 226 224 221 224 229 231 231 235 239 237 241 249
157 158 158 154 151 155 164 163 153 152 152 149 146 147 153 150 137 119 124 143 141 133 134 139 149 152 148 139 139 139 140 153 164 174 193 205 207 209 205 203 208 215 218 219 221 226 226 229 243 254 255 255 249 247 238 214 205 207 207 211 214 213 218 220 221 224 228 229 228 226 221 224 229 230 228 224 225 224 226 232 235 239 238 236 242
164 165 164 159 155 155 163 167 165 163 160 151 141 139 146 147 140 116 113 130 124 115 134 146 144 134 128 128 144 159 160 150 140 151 173 194 201 207 204 190 184 208 220 219 218 223 226 229 238 248 251 250 245 238 226 213 205 203 205 208 211 212 216 221 224 226 228 231 233 231 227 227 229 231 231 228 228 224 222 229 234 238 240 237 237
168 168 168 164 160 159 161 162 167 171 168 157 138 126 128 136 136 123 118 120 103 97 121 141 145 139 134 128 131 146 161 157 133 132 143 153 160 183 199 188 179 194 212 219 221 223 229 236 238 242 246 248 249 237 221 221 214 209 213 215 214 215 215 218 223 226 228 232 234 234 233 233 231 231 232 230 230 228 223 225 230 235 238 239 238
168 168 169 166 162 160 157 153 156 163 166 159 144 136 135 137 134 124 124 128 112 106 119 135 144 148 148 144 135 126 136 160 147 130 139 149 147 158 177 173 167 173 195 213 221 225 232 241 242 243 242 244 256 246 228 233 225 215 216 219 219 222 223 219 219 224 228 232 236 237 235 234 233 233 234 234 232 231 227 226 227 231 235 236 238
169 169 170 169 164 160 158 156 154 155 159 160 156 154 153 151 147 136 128 130 127 119 124 137 147 154 160 164 167 147 134 139 133 127 147 165 187 212 208 203 196 150 191 219 226 231 233 236 237 239 238 237 249 250 235 233 235 223 215 215 219 225 232 228 223 224 227 230 233 237 238 236 236 236 238 238 236 234 230 229 228 231 236 236 237
170 172 171 171 168 164 163 162 160 159 162 166 169 172 172 169 166 158 142 132 130 126 124 132 143 150 169 177 180 185 178 166 154 136 125 127 142 162 197 223 226 163 136 247 247 246 245 245 245 240 231 230 239 245 233 214 219 224 211 212 220 224 232 231 228 229 230 230 229 234 239 238 237 238 241 242 239 236 233 232 231 233 237 237 237
172 174 174 174 173 170 168 166 165 166 167 172 176 180 185 181 172 167 157 140 127 122 121 120 112 102 139 164 162 171 183 162 159 103 91 94 89 91 81 76 92 121 110 47 317 280 268 263 263 258 240 233 237 240 235 221 214 222 213 226 234 229 230 228 228 234 236 235 230 230 235 239 240 240 242 243 242 240 237 236 233 234 236 237 239
174 176 177 176 176 176 174 171 171 170 170 175 182 186 188 182 171 165 158 146 135 130 126 125 120 106 121 142 152 159 167 156 135 92 87 92 84 85 82 70 68 76 78 51 17 351 327 305 289 273 259 254 248 237 235 229 226 233 218 228 247 228 230 231 230 234 238 239 235 232 234 237 241 243 243 243 243 243 241 240 237 236 238 238 240
173 177 179 178 180 181 179 179 178 174 172 178 188 189 183 174 166 160 155 151 147 145 139 137 146 156 140 144 170 184 211 170 148 117 97 92 70 61 71 62 61 60 55 48 37 23 3 348 340 311 275 265 257 233 223 221 222 229 211 175 255 205 226 234 231 234 236 241 241 238 237 237 238 241 244 244 245 245 244 243 242 242 241 240 242
177 179 181 182 184 185 183 183 182 177 175 177 182 180 172 165 159 154 154 155 155 158 160 159 163 175 177 178 197 217 72 139 155 156 126 104 78 48 256 272 32 50 43 43 37 30 16 357 350 341 316 289 274 247 229 222 220 224 217 190 109 355 250 223 221 236 237 240 243 241 240 238 237 238 242 245 245 246 246 246 246 246 244 243 245
182 183 185 187 188 187 186 186 184 180 178 176 177 176 170 166 163 161 161 162 166 172 175 172 172 179 188 196 189 118 96 111 147 169 162 133 114 89 153 211 209 210 30 36 30 27 28 17 4 348 341 333 314 283 258 244 235 234 228 218 213 241 285 300 177 245 243 241 244 244 243 241 239 239 240 243 244 245 247 249 251 250 246 245 247
186 185 186 189 189 189 188 188 186 183 180 178 181 183 178 175 176 177 176 174 173 176 181 178 175 181 186 192 174 136 110 95 112 133 136 138 138 125 133 158 185 211 245 292 10 23 31 25 20 10 358 351 343 327 311 291 269 260 246 234 232 231 241 251 229 249 263 247 245 246 247 244 242 242 242 243 243 244 247 251 254 252 248 246 247
187 185 187 191 191 191 190 189 189 186 183 183 188 191 189 186 186 185 184 184 179 175 179 180 175 175 175 173 166 156 146 120 113 123 138 166 182 206 245 241 238 275 290 281 328 349 360 2 1 7 2 359 360 347 336 333 306 287 274 261 255 246 248 257 258 242 184 228 259 253 252 249 245 245 244 244 244 244 247 250 252 252 248 247 247
185 186 190 192 193 192 191 190 191 190 187 188 193 197 196 192 189 186 185 188 184 176 178 180 174 171 169 168 163 165 171 157 140 134 145 166 174 162 13 32 18 3 334 313 313 321 334 342 341 347 351 352 358 350 340 339 324 306 295 285 277 268 264 264 259 247 226 230 266 265 259 259 256 251 246 244 244 244 247 250 253 253 250 248 248
188 189 191 191 192 192 191 192 194 193 191 191 196 196 196 194 190 187 186 187 184 178 178 181 178 175 174 172 167 171 179 177 178 175 173 176 121 88 74 70 57 42 27 6 346 332 330 331 335 337 338 340 340 342 341 333 324 314 301 287 277 271 266 261 250 244 240 242 248 258 266 266 266 263 256 249 248 248 248 250 252 252 250 249 250
190 189 189 190 191 192 193 195 195 195 194 194 196 196 195 196 193 192 192 191 188 183 180 181 181 179 180 179 174 175 177 181 188 191 196 195 153 115 88 76 55 36 21 6 352 341 332 324 325 328 330 334 333 330 328 323 322 317 307 292 276 266 259 257 253 244 232 231 242 254 260 260 263 264 263 263 262 259 255 252 250 248 246 247 250